Location: Starry Hill Observatory
(46.8582°N, 122.3590°W)
Time: 08:30:14
(UTC-07:00)

Daily predictions for brighter satellites

Satellite Brightness Start Highest point End
(mag) Time Altitude Azimuth Time Altitude Azimuth Time Altitude Azimuth
USA 238 DEB 3.9 19:17:25 10° SW 19:24:30 86° NW 19:31:35 10° NE
USA 238 3.9 19:17:31 10° SW 19:24:35 87° NW 19:31:42 10° NE
METEOR-M 4.4 19:20:38 10° SE 19:25:44 48° ENE 19:30:52 10° N
Meteor 1-28 Rocket 3.7 19:22:19 10° NNE 19:25:48 37° E 19:29:15 10° SSE
Cosmos 1805 4.4 19:25:24 10° SE 19:28:29 22° E 19:31:35 10° NE
Okean 3 Rocket 3.7 19:24:07 10° N 19:28:42 90° E 19:33:15 10° S
H-2A R/B 4.4 19:26:37 10° ESE 19:29:06 16° ENE 19:31:34 10° NNE
Cosmos 2219 Rocket 3.3 19:24:24 10° SW 19:29:50 48° WNW 19:35:20 10° NNE
SAR-Lupe-4 3.5 19:26:35 10° SSE 19:30:09 83° ENE 19:33:45 10° NNW
ATLAS CENTAUR R/B 4.0 19:28:23 10° SSW 19:33:33 50° ESE 19:49:02 10° NE
Cosmos 2278 Rocket 3.9 19:28:54 10° NW 19:34:04 38° WSW 19:39:13 10° S
TELKOM 3 3.4 19:31:13 10° WNW 19:34:28 64° NNE 19:36:36 12° E
Resurs 1-3 4.2 19:30:41 10° SE 19:34:41 35° ENE 19:38:42 10° N
Resurs 01 Rocket 1.9 19:31:26 10° SE 19:35:41 46° ENE 19:39:57 10° N
Cosmos 1707 4.1 19:33:03 10° NNW 19:36:45 44° W 19:40:24 10° SSW
FENGYUN 3A 4.4 19:32:34 10° SE 19:37:18 33° ENE 19:42:04 10° N
Cosmos 2297 4.2 19:34:51 10° NNW 19:40:29 66° WSW 19:46:03 10° SSE
Cosmos 1743 Rocket 4.5 19:37:28 10° N 19:41:23 29° ENE 19:45:15 10° SE
Meteor 1-22 Rocket 4.0 19:39:36 10° S 19:44:56 82° E 19:50:15 10° NNE
Helios 1A 3.2 19:41:33 10° SE 19:45:36 50° ENE 19:49:41 10° N
Spot 2 Rocket 3.5 19:42:01 10° SSE 19:46:59 64° ENE 19:51:59 10° N
Meteor 1-24 Rocket 4.2 19:44:33 10° NNW 19:50:11 65° W 19:55:35 10° S
Cosmos 1470 4.3 19:49:04 12° ESE 19:51:07 16° E 19:53:36 10° NE
Cosmos 2369 Rocket 3.1 19:47:11 10° N 19:52:09 30° NE 19:56:06 14° ESE
CENTAUR R/B 3.8 19:49:11 10° SE 19:52:59 17° ESE 19:57:01 10° ENE
SJ-6B 3.4 19:51:00 10° S 19:54:57 64° W 19:59:01 10° NNW
Cosmos 1943 Rocket 3.8 19:51:31 10° N 19:55:16 18° NE 19:58:11 13° ENE
NOSS 3-2 (C) 3.5 19:50:27 10° SSW 19:56:27 61° ESE 20:03:02 10° NE
COSMO-SKYMED 1 3.7 19:52:55 10° N 19:57:06 47° WNW 20:01:16 10° SW
GP-B 4.4 19:56:23 10° NNE 19:59:39 20° E 20:01:03 17° ESE
Cosmos 1603 4.2 19:54:53 10° S 20:00:09 39° ESE 20:05:27 10° NE
HJ-1C 3.3 19:59:13 10° SSE 20:02:35 90° E 20:05:59 10° NNW
Nadezhda 4 Rocket 4.1 19:57:22 10° N 20:03:34 56° ENE 20:09:39 10° SSE
BREEZE-M DEB (TANK) 4.1 19:46:06 10° W 20:03:51 85° S 20:07:42 18° E
Cosmos 1758 3.3 20:02:19 10° S 20:06:21 61° E 20:10:25 10° NNE
Cosmos 1674 3.3 20:05:40 10° N 20:09:18 37° ENE 20:11:36 19° SE
Aureole 2 Rocket 3.6 20:05:14 10° SW 20:09:34 59° WNW 20:13:46 10° NNE
Cosmos 1092 Rocket 4.2 20:04:36 10° N 20:10:36 46° ENE 20:16:30 10° SSE
Cosmos 192 4.4 20:06:06 10° SSW 20:11:03 88° WNW 20:16:04 10° NNE
Cosmos 2333 Rocket 4.1 20:08:50 10° WSW 20:13:57 32° NW 20:19:06 10° NNE
Cosmos 1766 Rocket 4.0 20:12:52 10° NNW 20:17:14 65° W 20:21:32 10° S
Meteor 2-12 Rocket 4.4 20:11:19 10° S 20:17:27 70° E 20:23:34 10° NNE
Meteor 1-29 2.9 20:15:13 10° NNE 20:18:45 70° ESE 20:22:14 10° S
FengYun 1-2 T 4.2 20:16:27 10° SSE 20:21:58 85° WSW 20:27:30 10° NNW
Helios 1B rocket 2.4 20:19:03 10° NNE 20:23:11 89° WNW 20:27:18 10° SSW
H-2A R/B 4.1 20:26:03 14° NE 20:26:03 14° NE 20:28:00 10° NNE
ALOS 2.2 20:22:15 10° SSE 20:26:55 83° ENE 20:31:37 10° NNW
USA 215 3.2 20:22:01 10° ENE 20:28:33 65° SE 20:35:01 10° SW
Cosmos 1634 Rocket 4.3 20:23:15 10° SSE 20:29:00 40° E 20:34:44 10° NNE
CZ-4B DEB 2.8 20:30:16 19° S 20:32:29 81° WSW 20:35:47 10° NNW
Cosmos 1328 4.4 20:30:25 10° N 20:34:07 36° ENE 20:34:11 36° ENE
Cosmos 1939 Rocket 4.2 20:34:45 24° NE 20:34:45 24° NE 20:37:33 10° NNE
USA 186 3.1 20:35:59 19° N 20:35:59 19° N 20:36:52 10° N
SeaSat 1 3.0 20:30:27 10° NE 20:34:54 33° ESE 20:39:19 10° S
ERS-1 Rocket 3.6 20:35:09 31° E 20:36:19 35° ENE 20:40:51 10° N
Cosmos-2242 3.3 20:32:39 10° SSW 20:37:00 72° W 20:41:25 10° N
Cosmos 2237 Rocket 4.4 20:32:17 10° WSW 20:37:00 26° NW 20:41:44 10° N
ATLAS 5 CENTAUR R/B 1.9 20:35:01 10° SW 20:39:51 82° NW 20:45:11 10° NE
CZ-4C R/B 3.9 20:36:27 10° W 20:41:31 33° NNW 20:47:13 10° NNE
Cosmos 2034 Rocket 4.4 20:35:58 10° SSW 20:42:11 68° W 20:48:32 10° N
Cosmos 2151 3.1 20:42:12 10° N 20:46:19 49° ENE 20:46:35 48° E
CZ-2D R/B 3.4 20:44:39 20° S 20:47:15 72° WSW 20:51:10 10° NNW
Cosmos 1500 Rocket 3.6 20:46:27 10° N 20:50:53 80° W 20:53:45 22° S
Cosmos 1544 3.8 20:48:58 10° SSW 20:52:39 56° WNW 20:56:22 10° N
Cosmos 1842 Rocket 3.4 20:48:26 10° S 20:52:46 82° E 20:57:09 10° N
Cosmos 2058 3.7 20:49:41 10° N 20:52:43 35° NE 20:52:43 35° NE
SL-16 R/B 3.7 20:51:43 10° WSW 20:56:57 36° NW 21:02:13 10° NNE
SL-8 R/B 4.2 20:54:00 10° SW 20:58:06 42° SSE 20:58:06 42° SSE
Cosmos 1953 4.1 20:56:46 10° SW 21:00:24 33° WNW 21:04:03 10° N
H-2A R/B 3.7 21:00:41 21° SSW 21:03:04 48° W 21:06:51 10° NNW
NOSS 3-2 (A) 4.5 21:02:59 10° WSW 21:09:00 48° NW 21:15:39 10° NE
Cosmos 1627 Rocket 4.4 21:05:10 10° N 21:11:24 83° E 21:14:18 34° SSE
Cosmos 1331 Rocket 4.0 21:06:22 10° NNW 21:11:40 61° ENE 21:12:03 59° E
Resurs 01 Rocket 4.2 21:09:05 10° SW 21:12:23 20° W 21:15:43 10° NW
SJ-11-01 4.1 21:14:06 73° SE 21:14:32 84° ENE 21:19:15 10° NNW
ERBS 3.9 21:11:48 10° NW 21:14:07 31° N 21:14:07 31° N
ASTEX 1 4.2 21:10:43 10° N 21:15:30 52° WNW 21:20:14 10° SSW
Cosmos 839 Rocket 4.3 21:10:56 10° NW 21:18:51 79° WSW 21:21:23 42° SSE
Cosmos 1470 4.0 21:24:17 17° SW 21:26:54 40° WNW 21:30:36 10° N
Cosmos 1733 4.5 21:34:27 39° W 21:34:41 39° WNW 21:38:22 10° N
Cosmos 2369 Rocket 2.8 21:30:58 10° NW 21:36:27 52° WSW 21:37:55 41° SSW
Envisat 2.9 21:36:45 82° W 21:36:45 82° W 21:41:48 10° NNW
GP-B 4.1 21:32:58 10° N 21:37:12 44° W 21:38:32 34° SW
Cosmos 1943 3.1 21:34:03 10° SSW 21:39:42 82° WNW 21:45:21 10° NNE
Cosmos 1943 Rocket 2.1 21:34:19 10° NNW 21:39:43 77° NNE 21:39:43 77° NNE
SPOT 5 4.1 21:43:29 29° N 21:43:29 29° N 21:45:44 10° N
H-2A R/B 4.0 21:43:41 18° NNE 21:43:41 18° NNE 21:45:30 10° N
Cosmos 2263 4.4 21:35:51 10° NNW 21:41:36 66° WSW 21:42:18 60° SSW
CENTAUR R/B 2.4 21:36:16 10° SW 21:42:27 85° SE 21:49:28 10° NE
Cosmos 2279 Rocket 3.9 21:52:03 75° SSW 21:52:36 83° W 21:58:51 10° N
Cosmos 1655 Rocket 4.4 21:48:44 10° NNW 21:54:51 60° W 21:56:25 46° SW
Meteor 2-1 Rocket 4.4 21:56:04 73° NNW 21:56:04 73° NNW 22:01:28 10° N
Aureole 3 4.4 21:50:49 10° N 21:56:46 73° NNW 21:56:46 73° NNW
H-2A R/B 3.7 22:03:12 31° NNW 22:03:12 31° NNW 22:05:36 10° NNW
Cosmos 2266 Rocket 4.3 22:01:22 10° N 22:06:27 56° NNE 22:06:27 56° NNE
USA 215 3.8 22:08:21 30° NE 22:11:29 54° NNW 22:17:48 10° W
SeaSat 1 3.6 22:07:51 10° NNE 22:12:30 42° NW 22:17:07 10° WSW
ERS-1 Rocket 4.4 22:15:10 33° W 22:15:10 33° W 22:19:38 10° NNW
ATLAS 5 CENTAUR R/B 4.1 22:21:24 10° WNW 22:25:24 23° NNW 22:29:23 11° NNE
Terra 4.4 22:49:13 16° N 22:49:13 16° N 22:50:11 10° N
CENTAUR R/B 4.1 23:28:15 10° W 23:34:00 32° NNW 23:40:25 10° NE
